Valladolid Airport, Spain

9:47 AM CEST on March 28, 2017 (GMT +0200)
Valladolid Airport

Weather History for LEVD - February, 2013

Change the Weather History Date:

Tuesday, February 19, 2013

  Actual Average Record
Temperature  
Mean Temperature 44 °F -  
Max Temperature 51 °F - - ()
Min Temperature 37 °F - - ()
Degree Days  
Heating Degree Days 21    
Moisture  
Dew Point 41 °F    
Average Humidity 85    
Maximum Humidity 100    
Minimum Humidity 67    
Precipitation  
Precipitation 0.00 in - - ()
Sea Level Pressure  
Sea Level Pressure 29.79 in    
Wind  
Wind Speed 8 mph ()    
Max Wind Speed 15 mph    
Max Gust Speed -    
Visibility 6.2 miles    
Events Rain    
T = Trace of Precipitation, MM = Missing Value Source: Averaged Metar Reports

Daily Weather History Graph

Daily Weather History Graph

Search for Another Location

Airport or City:

Trip Planner

Search our weather history database for the weather conditions in past years. The results will help you decide how hot, cold, wet, or windy it might be!

Date:

Astronomy

Feb. 19, 2013 Rise Set
Actual Time 8:09 AM CET 6:57 PM CET
Civil Twilight 7:40 AM CET 7:26 PM CET
Nautical Twilight 7:08 AM CET 7:58 PM CET
Astronomical Twilight 6:36 AM CET 8:30 PM CET
Moon 1:15 PM CET (2/19) 3:31 AM CET (2/19)
Length of Visible Light 11h 45m
Length of Day
10h 48m
Waxing Gibbous, 65% of the Moon is Illuminated
Feb 19
Waxing Gibbous
Feb 25
Full
Mar 4
Last Quarter
Mar 11
New
Mar 19
First Quarter

Hourly Weather History & Observations

Time (CET) Temp. Windchill Dew Point Humidity Pressure Visibility Wind Dir Wind Speed Gust Speed Precip Events Conditions
7:00 AM 37.4 °F 29.3 °F 35.6 °F 93% 29.77 in - East 12.7 mph - N/A   Clear
7:30 AM 37.4 °F 30.8 °F 35.6 °F 93% 29.77 in - East 9.2 mph - N/A   Clear
8:00 AM 37.4 °F 30.3 °F 35.6 °F 93% 29.77 in 6.2 mi East 10.4 mph - N/A   Partly Cloudy
8:30 AM 37.4 °F 30.3 °F 35.6 °F 93% 29.77 in 6.2 mi East 10.4 mph - N/A   Partly Cloudy
9:00 AM 37.4 °F 31.4 °F 37.4 °F 100% 29.77 in 6.2 mi East 8.1 mph - N/A   Scattered Clouds
10:00 AM 39.2 °F 33.0 °F 39.2 °F 100% 29.80 in 6.2 mi East 9.2 mph - N/A Rain Light Rain
10:30 AM 41.0 °F 34.7 °F 39.2 °F 93% 29.80 in 6.2 mi East 10.4 mph - N/A   Mostly Cloudy
11:00 AM 41.0 °F 35.2 °F 41.0 °F 100% 29.80 in 6.2 mi East 9.2 mph - N/A Rain Light Rain
11:30 AM 42.8 °F 37.5 °F 41.0 °F 93% 29.80 in 6.2 mi East 9.2 mph - N/A   Mostly Cloudy
12:00 PM 44.6 °F 40.7 °F 44.6 °F 100% 29.80 in 6.2 mi East 6.9 mph - N/A   Scattered Clouds
12:30 PM 48.2 °F - 44.6 °F 87% 29.80 in 6.2 mi East 10.4 mph - N/A   Scattered Clouds
1:00 PM 48.2 °F - 44.6 °F 87% 29.80 in 6.2 mi ESE 11.5 mph - N/A   Scattered Clouds
1:30 PM 50.0 °F - 44.6 °F 82% 29.80 in 6.2 mi SSE 12.7 mph - N/A   Mostly Cloudy
2:00 PM 50.0 °F - 44.6 °F 82% 29.80 in 6.2 mi South 11.5 mph - N/A   Mostly Cloudy
2:30 PM 50.0 °F - 42.8 °F 76% 29.77 in 6.2 mi South 15.0 mph - N/A   Mostly Cloudy
3:30 PM 51.8 °F - 42.8 °F 71% 29.77 in 6.2 mi SSE 12.7 mph - N/A   Scattered Clouds
4:00 PM 50.0 °F - 44.6 °F 82% 29.77 in 6.2 mi SSE 10.4 mph - N/A   Scattered Clouds
4:30 PM 50.0 °F - 41.0 °F 71% 29.77 in 6.2 mi SSE 11.5 mph - N/A   Scattered Clouds
5:00 PM 51.8 °F - 42.8 °F 71% 29.77 in 6.2 mi South 10.4 mph - N/A   Scattered Clouds
5:30 PM 51.8 °F - 41.0 °F 67% 29.77 in 6.2 mi SSE 10.4 mph - N/A   Partly Cloudy
6:00 PM 50.0 °F - 41.0 °F 71% 29.80 in 6.2 mi South 8.1 mph - N/A   Partly Cloudy
6:30 PM 48.2 °F - 41.0 °F 76% 29.80 in 6.2 mi South 4.6 mph - N/A   Partly Cloudy
7:00 PM 48.2 °F - 41.0 °F 76% 29.80 in 6.2 mi South 2.3 mph - N/A   Scattered Clouds
7:30 PM 48.2 °F - 42.8 °F 82% 29.80 in 6.2 mi Variable 2.3 mph - N/A   Scattered Clouds
8:00 PM 46.4 °F - 42.8 °F 87% 29.83 in 6.2 mi Calm Calm - N/A   Scattered Clouds
8:30 PM 44.6 °F - 42.8 °F 93% 29.83 in 6.2 mi Calm Calm - N/A   Scattered Clouds
9:00 PM 46.4 °F - 42.8 °F 87% 29.83 in 6.2 mi East 1.2 mph - N/A   Scattered Clouds
9:30 PM 46.4 °F - 42.8 °F 87% 29.83 in 6.2 mi Calm Calm - N/A   Scattered Clouds